CYBL

Campbell River Airport

Campbell River, British Columbia, Canada
Issued Wind Visibility Ceiling Temperature Dew Point Humidity Barometer
Sep-23
01:00 UTC
360°
4 KTS
30 miles Broken
9,000' AGL
19° C
66° F
C
43° F
43% 30" Hg
1016.1 hPa
VFR
Sep-23
00:00 UTC
010°
7 KTS
30 miles Broken
16,000' AGL
20° C
68° F
C
43° F
40% 29.99" Hg
1015.9 hPa
VFR
Sep-22
23:00 UTC
060°
5 KTS
30 miles Broken
25,000' AGL
20° C
68° F
C
45° F
43% 30" Hg
1016.2 hPa
VFR
Sep-22
22:00 UTC
070°
5 KTS
30 miles Broken
25,000' AGL
20° C
68° F
C
45° F
43% 30.01" Hg
1016.6 hPa
VFR
Sep-22
21:00 UTC
070°
4 KTS
30 miles Broken
14,000' AGL
19° C
66° F
C
45° F
46% 30.03" Hg
1017.2 hPa
VFR
Sep-22
20:00 UTC
060°
6 KTS
30 miles Broken
25,000' AGL
18° C
64° F
C
45° F
49% 30.04" Hg
1017.4 hPa
VFR
Sep-22
19:00 UTC
130°
4 KTS
30 miles Broken
25,000' AGL
17° C
63° F
C
46° F
56% 30.06" Hg
1018.1 hPa
VFR
Sep-22
18:00 UTC
Varies @3 KTS 30 miles Broken
25,000' AGL
16° C
61° F
C
43° F
52% 30.07" Hg
1018.5 hPa
VFR
Sep-22
17:00 UTC
Varies @4 KTS 30 miles   13° C
55° F
C
43° F
63% 30.06" Hg
1018.4 hPa
VFR
Sep-22
16:00 UTC
30 miles   C
46° F
C
45° F
93% 30.07" Hg
1018.6 hPa
VFR
Sep-22
15:00 UTC
Varies @2 KTS 30 miles Broken
25,000' AGL
C
39° F
C
37° F
93% 30.07" Hg
1018.7 hPa
VFR
Sep-22
14:00 UTC
260°
3 KTS
30 miles   C
36° F
C
34° F
93% 30.05" Hg
1018 hPa
VFR
Sep-22
13:00 UTC
260°
3 KTS
15 miles   C
37° F
C
36° F
93% 30.05" Hg
1017.8 hPa
VFR
Sep-22
04:00 UTC
300°
3 KTS
30 miles   C
48° F
C
43° F
82% 29.99" Hg
1015.8 hPa
VFR
Sep-22
03:00 UTC
300°
2 KTS
30 miles   C
48° F
C
45° F
87% 29.97" Hg
1015.3 hPa
VFR